TimeCST,TemperatureF,Dew PointF,Humidity,Sea Level PressureIn,VisibilityMPH,Wind Direction,Wind SpeedMPH,Gust SpeedMPH,PrecipitationIn,Events,Conditions,WindDirDegrees,DateUTC
12:00 AM,89.6,71.6,55,29.65,-9999.0,SSE,6.7,-,N/A,,Clear,150,2013-07-26 16:00:00
12:30 AM,89.6,73.4,59,29.65,-9999.0,SSE,8.9,-,N/A,,Clear,150,2013-07-26 16:30:00
1:00 AM,89.6,73.4,59,29.65,-9999.0,SE,6.7,-,N/A,,Clear,140,2013-07-26 17:00:00
1:30 AM,87.8,75.2,66,29.62,-9999.0,SSE,6.7,-,N/A,,Clear,150,2013-07-26 17:30:00
2:00 AM,87.8,75.2,66,29.65,-9999.0,SE,6.7,-,N/A,,Clear,140,2013-07-26 18:00:00
2:30 AM,87.8,77.0,70,29.65,-9999.0,SE,4.5,-,N/A,,Clear,140,2013-07-26 18:30:00
3:00 AM,86.0,77.0,74,29.65,-9999.0,SE,6.7,-,N/A,,Clear,140,2013-07-26 19:00:00
3:30 AM,86.0,77.0,74,29.65,-9999.0,SSE,6.7,-,N/A,,Clear,150,2013-07-26 19:30:00
4:00 AM,84.2,77.0,79,29.65,-9999.0,SSE,6.7,-,N/A,,Clear,160,2013-07-26 20:00:00
4:30 AM,84.2,77.0,79,29.65,-9999.0,SSE,4.5,-,N/A,,Clear,150,2013-07-26 20:30:00
5:00 AM,84.2,77.0,79,29.65,-9999.0,SSE,4.5,-,N/A,,Clear,150,2013-07-26 21:00:00
5:30 AM,84.2,77.0,79,29.65,-9999.0,SE,4.5,-,N/A,,Clear,140,2013-07-26 21:30:00
6:00 AM,84.2,78.8,84,29.65,-9999.0,South,4.5,-,N/A,,Clear,170,2013-07-26 22:00:00
6:30 AM,86.0,77.0,74,29.65,-9999.0,South,4.5,-,N/A,,Clear,190,2013-07-26 22:30:00
7:00 AM,87.8,78.8,75,29.65,-9999.0,Variable,2.2,-,N/A,,Clear,0,2013-07-26 23:00:00
7:30 AM,91.4,78.8,66,29.65,-9999.0,SW,4.5,-,N/A,,Clear,230,2013-07-26 23:30:00
8:00 AM,91.4,78.8,66,29.65,-9999.0,WSW,6.7,-,N/A,,Clear,250,2013-07-27 00:00:00
8:30 AM,91.4,78.8,66,29.65,-9999.0,West,6.7,-,N/A,,Clear,270,2013-07-27 00:30:00
9:00 AM,93.2,78.8,63,29.68,5.0,West,6.7,-,N/A,,Unknown,260,2013-07-27 01:00:00
9:30 AM,93.2,80.6,67,29.68,3.7,NW,8.9,-,N/A,,Unknown,310,2013-07-27 01:30:00
10:00 AM,95.0,80.6,63,29.68,3.7,WNW,6.7,-,N/A,,Unknown,290,2013-07-27 02:00:00
10:30 AM,96.8,80.6,60,29.68,3.7,WNW,8.9,-,N/A,,Unknown,300,2013-07-27 02:30:00
11:00 AM,98.6,78.8,53,29.65,3.7,WNW,6.7,-,N/A,,Partly Cloudy,300,2013-07-27 03:00:00
11:30 AM,98.6,78.8,53,29.65,2.5,WNW,8.9,-,N/A,,Haze,300,2013-07-27 03:30:00
12:00 PM,98.6,75.2,47,29.65,3.7,NW,8.9,-,N/A,,Scattered Clouds,310,2013-07-27 04:00:00
12:30 PM,102.2,75.2,42,29.62,3.7,West,11.2,-,N/A,,Scattered Clouds,280,2013-07-27 04:30:00
1:00 PM,100.4,75.2,44,29.62,3.7,WSW,6.7,-,N/A,,Scattered Clouds,250,2013-07-27 05:00:00
1:30 PM,102.2,73.4,40,29.62,3.7,Variable,6.7,-,N/A,,Scattered Clouds,0,2013-07-27 05:30:00
2:00 PM,102.2,73.4,40,29.62,3.7,West,6.7,22.4,N/A,,Scattered Clouds,280,2013-07-27 06:00:00
2:30 PM,102.2,73.4,40,29.62,4.3,West,8.9,20.1,N/A,,Scattered Clouds,270,2013-07-27 06:30:00
3:00 PM,104.0,69.8,33,29.62,5.0,Variable,4.5,-,N/A,,Scattered Clouds,0,2013-07-27 07:00:00
3:30 PM,102.2,71.6,37,29.59,5.0,West,8.9,-,N/A,,Partly Cloudy,270,2013-07-27 07:30:00
4:00 PM,95.0,71.6,47,29.62,5.0,ESE,13.4,26.8,N/A,,Mostly Cloudy,110,2013-07-27 08:00:00
4:30 PM,93.2,69.8,46,29.62,6.2,East,11.2,-,N/A,,Partly Cloudy,100,2013-07-27 08:30:00
5:00 PM,93.2,68.0,44,29.62,6.2,ENE,11.2,-,N/A,,Partly Cloudy,70,2013-07-27 09:00:00
5:30 PM,93.2,68.0,44,29.62,6.2,East,11.2,-,N/A,Thunderstorm,Thunderstorm,90,2013-07-27 09:30:00
6:00 PM,95.0,66.2,39,29.62,-9999.0,East,8.9,-,N/A,,Clear,90,2013-07-27 10:00:00
6:30 PM,95.0,66.2,39,29.62,-9999.0,East,6.7,-,N/A,,Clear,90,2013-07-27 10:30:00
7:00 PM,95.0,68.0,41,29.62,-9999.0,East,6.7,-,N/A,,Clear,100,2013-07-27 11:00:00
7:30 PM,93.2,73.4,52,29.62,-9999.0,ESE,8.9,-,N/A,,Clear,110,2013-07-27 11:30:00
8:00 PM,93.2,75.2,56,29.62,-9999.0,ESE,8.9,-,N/A,,Clear,110,2013-07-27 12:00:00
8:30 PM,91.4,75.2,59,29.65,-9999.0,SE,8.9,-,N/A,,Clear,130,2013-07-27 12:30:00
9:00 PM,91.4,75.2,59,29.65,-9999.0,SSE,11.2,-,N/A,,Clear,150,2013-07-27 13:00:00
9:30 PM,91.4,77.0,63,29.65,-9999.0,SSE,11.2,-,N/A,,Clear,150,2013-07-27 13:30:00
10:00 PM,89.6,77.0,66,29.65,-9999.0,SSE,11.2,-,N/A,,Clear,150,2013-07-27 14:00:00
10:30 PM,91.4,77.0,63,29.65,-9999.0,SSE,8.9,-,N/A,,Clear,150,2013-07-27 14:30:00
11:00 PM,91.4,75.2,59,29.65,-9999.0,SSE,6.7,-,N/A,,Clear,160,2013-07-27 15:00:00
11:30 PM,91.4,73.4,55,29.65,-9999.0,South,8.9,-,N/A,,Clear,170,2013-07-27 15:30:00